• în România
  • Lista ţărilor
  • Pe 7 zile
  • Temperatura apei
  • Hartă satelitară
  • Meteo pe hartă
  • Widget-uri
  • user-avatar
    Intrare

    Meteo pe oră la Vypolzovo

    Astăzi, 25 Iunie, Luni

    Timp Temperatura Precipitaţii Vânt Presiune Umiditate
    00:00 +22°C° 0 mm 1 m/s 758 mmHg 85%
    01:00 +22°C° 0 mm 1 m/s 758 mmHg 86%
    02:00 +21°C° 0 mm 1 m/s 758 mmHg 88%
    03:00 +21°C° 0 mm 1 m/s 759 mmHg 90%
    04:00 +22°C° 0 mm 1 m/s 759 mmHg 87%
    05:00 +23°C° 0 mm 1 m/s 759 mmHg 84%
    06:00 +24°C° 0 mm 1 m/s 759 mmHg 81%
    07:00 +26°C° 0 mm 1 m/s 759 mmHg 76%
    08:00 +27°C° 0 mm 1 m/s 759 mmHg 70%
    09:00 +29°C° 0 mm 1 m/s 760 mmHg 65%
    10:00 +30°C° 0 mm 1 m/s 760 mmHg 61%
    11:00 +31°C° 0 mm 1 m/s 760 mmHg 57%
    12:00 +32°C° 0 mm 1 m/s 760 mmHg 52%
    13:00 +32°C° 0 mm 1 m/s 760 mmHg 51%
    14:00 +32°C° 0 mm 1 m/s 760 mmHg 50%
    15:00 +32°C° 0 mm 1 m/s 759 mmHg 48%
    16:00 +32°C° 0 mm 1 m/s 759 mmHg 52%
    17:00 +32°C° 0 mm 1 m/s 759 mmHg 55%
    18:00 +31°C° 0 mm 1 m/s 759 mmHg 59%
    19:00 +29°C° 0 mm 1 m/s 759 mmHg 63%
    20:00 +27°C° 0 mm 1 m/s 759 mmHg 67%
    21:00 +25°C° 0 mm 1 m/s 760 mmHg 71%
    22:00 +25°C° 0 mm 1 m/s 760 mmHg 72%
    23:00 +24°C° 0 mm 1 m/s 760 mmHg 74%

    Mâine, 26 Iunie, Marţi

    Timp Temperatura Precipitaţii Vânt Presiune Umiditate
    00:00 +23°C° 0 mm 1 m/s 760 mmHg 76%
    01:00 +23°C° 0 mm 1 m/s 760 mmHg 76%
    02:00 +23°C° 0 mm 1 m/s 760 mmHg 77%
    03:00 +22°C° 0 mm 1 m/s 760 mmHg 78%
    04:00 +21°C° 0 mm 0 m/s 760 mmHg 75%
    05:00 +23°C° 0 mm 0 m/s 760 mmHg 73%
    06:00 +24°C° 0 mm 0 m/s 760 mmHg 70%
    07:00 +25°C° 0 mm 0 m/s 760 mmHg 67%
    08:00 +28°C° 0 mm 1 m/s 760 mmHg 63%
    09:00 +30°C° 0 mm 1 m/s 760 mmHg 59%
    10:00 +31°C° 0 mm 1 m/s 760 mmHg 57%
    11:00 +31°C° 0 mm 2 m/s 760 mmHg 54%
    12:00 +32°C° 0 mm 2 m/s 760 mmHg 51%
    13:00 +32°C° 0,1 mm 2 m/s 760 mmHg 52%
    14:00 +33°C° 0,1 mm 3 m/s 760 mmHg 53%
    15:00 +33°C° 0,1 mm 3 m/s 759 mmHg 54%
    16:00 +31°C° 0 mm 3 m/s 759 mmHg 59%
    17:00 +30°C° 0 mm 3 m/s 759 mmHg 64%
    18:00 +29°C° 0 mm 3 m/s 759 mmHg 69%
    19:00 +28°C° 0 mm 3 m/s 759 mmHg 74%
    20:00 +27°C° 0 mm 3 m/s 760 mmHg 79%
    21:00 +25°C° 0 mm 3 m/s 760 mmHg 83%
    22:00 +24°C° 0,2 mm 2 m/s 760 mmHg 86%
    23:00 +24°C° 0,2 mm 2 m/s 760 mmHg 89%

    Poimâine, 27 Iunie, Miercuri

    Timp Temperatura Precipitaţii Vânt Presiune Umiditate
    00:00 +23°C° 0,2 mm 2 m/s 760 mmHg 91%
    01:00 +23°C° 0 mm 2 m/s 760 mmHg 92%
    02:00 +21°C° 0 mm 2 m/s 760 mmHg 93%
    03:00 +21°C° 0 mm 2 m/s 760 mmHg 94%
    04:00 +23°C° 0 mm 2 m/s 760 mmHg 91%
    05:00 +24°C° 0 mm 3 m/s 760 mmHg 89%
    06:00 +24°C° 0 mm 3 m/s 760 mmHg 86%
    07:00 +26°C° 0,2 mm 3 m/s 760 mmHg 81%
    08:00 +27°C° 0,2 mm 3 m/s 759 mmHg 76%
    09:00 +29°C° 0,2 mm 3 m/s 759 mmHg 70%
    10:00 +30°C° 0,1 mm 3 m/s 759 mmHg 66%
    11:00 +30°C° 0,1 mm 3 m/s 759 mmHg 62%
    12:00 +31°C° 0,1 mm 3 m/s 759 mmHg 58%
    13:00 +32°C° 0,1 mm 4 m/s 759 mmHg 58%
    14:00 +32°C° 0,1 mm 4 m/s 758 mmHg 59%
    15:00 +32°C° 0,1 mm 4 m/s 758 mmHg 60%
    16:00 +30°C° 0,2 mm 4 m/s 758 mmHg 64%
    17:00 +30°C° 0,2 mm 4 m/s 758 mmHg 68%
    18:00 +29°C° 0,2 mm 3 m/s 758 mmHg 73%
    19:00 +27°C° 0,1 mm 3 m/s 758 mmHg 77%
    20:00 +26°C° 0,1 mm 3 m/s 758 mmHg 81%
    21:00 +24°C° 0,1 mm 3 m/s 759 mmHg 85%
    22:00 +24°C° 0 mm 2 m/s 759 mmHg 87%
    23:00 +23°C° 0 mm 2 m/s 758 mmHg 88%

    28 Iunie, Joi

    Timp Temperatura Precipitaţii Vânt Presiune Umiditate
    00:00 +21°C° 0 mm 2 m/s 758 mmHg 89%
    01:00 +21°C° 0 mm 2 m/s 758 mmHg 90%
    02:00 +20°C° 0 mm 3 m/s 758 mmHg 92%
    03:00 +20°C° 0 mm 3 m/s 758 mmHg 93%
    04:00 +21°C° 0 mm 3 m/s 758 mmHg 90%
    05:00 +22°C° 0 mm 3 m/s 758 mmHg 87%
    06:00 +22°C° 0 mm 4 m/s 758 mmHg 84%
    07:00 +25°C° 0 mm 4 m/s 758 mmHg 78%
    08:00 +26°C° 0 mm 4 m/s 758 mmHg 72%
    09:00 +28°C° 0 mm 5 m/s 758 mmHg 66%
    10:00 +28°C° 0 mm 5 m/s 758 mmHg 62%
    11:00 +29°C° 0 mm 6 m/s 758 mmHg 57%
    12:00 +30°C° 0 mm 6 m/s 758 mmHg 53%
    13:00 +30°C° 0 mm 6 m/s 758 mmHg 52%
    14:00 +30°C° 0 mm 6 m/s 758 mmHg 52%
    15:00 +29°C° 0 mm 6 m/s 758 mmHg 51%
    16:00 +29°C° 0 mm 5 m/s 758 mmHg 55%
    17:00 +28°C° 0 mm 5 m/s 758 mmHg 60%
    18:00 +27°C° 0 mm 4 m/s 758 mmHg 65%
    19:00 +25°C° 0 mm 4 m/s 758 mmHg 67%
    20:00 +23°C° 0 mm 4 m/s 758 mmHg 70%
    21:00 +21°C° 0 mm 3 m/s 759 mmHg 72%
    22:00 +21°C° 0 mm 3 m/s 758 mmHg 72%
    23:00 +20°C° 0 mm 3 m/s 758 mmHg 72%

    29 Iunie, Vineri

    Timp Temperatura Precipitaţii Vânt Presiune Umiditate
    00:00 +19°C° 0 mm 3 m/s 758 mmHg 73%
    01:00 +18°C° 0 mm 3 m/s 758 mmHg 74%
    02:00 +18°C° 0 mm 3 m/s 758 mmHg 76%
    03:00 +17°C° 0 mm 3 m/s 758 mmHg 77%
    04:00 +18°C° 0 mm 3 m/s 758 mmHg 76%
    05:00 +19°C° 0 mm 3 m/s 758 mmHg 75%
    06:00 +20°C° 0 mm 3 m/s 759 mmHg 73%
    07:00 +22°C° 0 mm 3 m/s 759 mmHg 69%
    08:00 +25°C° 0 mm 3 m/s 759 mmHg 65%
    09:00 +26°C° 0 mm 3 m/s 759 mmHg 61%
    10:00 +27°C° 0 mm 4 m/s 758 mmHg 56%
    11:00 +28°C° 0 mm 4 m/s 758 mmHg 51%
    12:00 +29°C° 0 mm 4 m/s 758 mmHg 45%
    13:00 +29°C° 0 mm 4 m/s 758 mmHg 46%
    14:00 +29°C° 0 mm 4 m/s 758 mmHg 47%
    15:00 +29°C° 0 mm 4 m/s 758 mmHg 47%
    16:00 +29°C° 0 mm 3 m/s 758 mmHg 52%
    17:00 +28°C° 0 mm 3 m/s 758 mmHg 57%
    18:00 +27°C° 0 mm 3 m/s 758 mmHg 62%
    19:00 +26°C° 0 mm 3 m/s 758 mmHg 66%
    20:00 +24°C° 0 mm 3 m/s 758 mmHg 70%
    21:00 +21°C° 0 mm 3 m/s 758 mmHg 74%
    22:00 +20°C° 0 mm 2 m/s 758 mmHg 76%
    23:00 +20°C° 0 mm 2 m/s 759 mmHg 78%

    30 Iunie, Sâmbătă

    Timp Temperatura Precipitaţii Vânt Presiune Umiditate
    00:00 +19°C° 0 mm 2 m/s 759 mmHg 80%
    01:00 +18°C° 0 mm 2 m/s 759 mmHg 81%
    02:00 +18°C° 0 mm 2 m/s 759 mmHg 83%
    03:00 +17°C° 0 mm 2 m/s 759 mmHg 84%
    04:00 +18°C° 0 mm 2 m/s 759 mmHg 81%
    05:00 +19°C° 0 mm 2 m/s 759 mmHg 78%
    06:00 +20°C° 0 mm 2 m/s 759 mmHg 75%
    07:00 +23°C° 0 mm 2 m/s 759 mmHg 68%
    08:00 +24°C° 0 mm 2 m/s 759 mmHg 61%
    09:00 +25°C° 0 mm 3 m/s 759 mmHg 54%
    10:00 +26°C° 0 mm 3 m/s 758 mmHg 51%
    11:00 +27°C° 0 mm 2 m/s 758 mmHg 48%
    12:00 +28°C° 0 mm 2 m/s 758 mmHg 45%
    13:00 +28°C° 0 mm 2 m/s 758 mmHg 44%
    14:00 +28°C° 0 mm 2 m/s 757 mmHg 43%
    15:00 +29°C° 0 mm 1 m/s 757 mmHg 43%
    16:00 +28°C° 0 mm 1 m/s 757 mmHg 47%
    17:00 +28°C° 0 mm 1 m/s 757 mmHg 51%
    18:00 +26°C° 0 mm 0 m/s 756 mmHg 55%
    19:00 +26°C° 0 mm 1 m/s 756 mmHg 57%
    20:00 +24°C° 0 mm 1 m/s 756 mmHg 60%
    21:00 +22°C° 0 mm 1 m/s 756 mmHg 63%
    22:00 +22°C° 0 mm 1 m/s 756 mmHg 65%
    23:00 +21°C° 0 mm 1 m/s 756 mmHg 67%
    Arată mai mult